Wind_Speed
35 35 35 36 36 36 32 29 28 29 29 30 32 33 32 32 33 34 30 26 25 25 24 23 22 21 20 19 18 18 17 16 15 14 13 12 11 10 9 9 9 9 8 8 8 8 8 8 8
37 38 38 39 39 36 31 28 30 31 31 33 32 32 32 33 35 34 30 28 27 26 26 25 24 23 21 20 19 19 18 17 16 14 14 13 12 11 10 10 9 9 9 9 8 8 8 8 9
40 40 41 42 41 36 30 30 32 33 34 34 33 33 33 35 36 33 31 30 28 28 27 26 25 24 23 21 20 19 18 18 17 16 15 14 13 12 11 11 10 10 9 9 9 8 8 9 10
44 44 45 44 41 35 32 33 35 35 35 35 35 35 36 35 35 32 31 31 30 29 29 28 26 25 24 23 21 20 19 19 18 16 15 15 14 13 12 11 11 10 10 9 9 9 9 9 10
47 47 48 46 41 36 35 35 36 36 36 36 36 37 37 36 35 33 33 33 32 31 30 29 28 27 25 24 22 21 20 20 19 17 16 15 15 14 13 12 11 11 10 10 9 9 9 10 11
49 50 50 47 41 38 37 37 38 38 37 37 37 38 38 37 36 35 35 34 34 33 32 31 29 28 26 25 24 23 22 21 20 18 17 16 15 15 14 13 12 11 11 10 10 10 10 11 12
52 52 51 48 44 41 39 39 40 40 39 38 38 39 39 38 37 36 36 35 34 33 33 33 31 30 28 26 25 24 23 22 21 19 18 17 16 16 15 14 13 12 12 11 11 11 11 12 13
54 55 54 51 47 43 41 41 42 42 40 39 40 40 40 38 38 38 37 36 35 34 34 33 33 31 30 28 26 25 24 23 22 20 19 18 17 17 16 15 14 13 12 12 12 12 12 13 14
57 59 57 51 48 45 44 44 44 43 42 41 42 42 41 39 38 38 38 37 36 35 34 34 34 33 31 29 28 27 25 24 23 21 20 19 18 18 17 16 14 14 13 13 13 13 13 14 14
60 61 56 50 49 48 47 46 46 45 43 43 43 42 41 38 38 38 38 37 36 35 35 35 34 34 32 30 29 28 26 25 24 23 21 20 19 18 17 16 15 15 14 14 14 14 14 15 15
62 60 55 53 52 51 51 50 48 48 46 44 43 42 41 39 39 39 39 38 37 37 36 35 35 34 32 31 30 29 27 26 25 24 23 21 20 19 18 17 16 16 15 15 15 15 15 16 16
62 60 58 56 55 54 53 52 51 50 46 45 45 44 43 42 40 39 39 39 38 38 37 37 36 34 33 32 31 30 29 27 26 25 23 22 21 20 19 18 17 17 16 16 16 16 17 17 18
62 61 60 59 58 57 56 55 53 51 48 48 48 47 44 43 41 40 40 40 40 40 39 38 37 35 34 33 32 31 30 28 27 25 24 23 21 21 20 19 18 18 17 17 17 18 18 19 20
61 61 62 61 60 59 58 57 57 53 50 50 50 48 45 43 42 41 41 40 41 41 40 39 38 36 35 34 33 32 31 29 28 26 25 23 22 22 21 20 20 19 19 18 18 19 20 20 21
61 62 63 63 62 60 61 61 58 53 53 52 51 50 47 45 44 42 41 41 41 41 41 40 39 38 36 35 34 33 32 31 29 28 26 25 24 23 22 22 21 20 20 20 20 20 21 21 23
62 63 64 63 62 61 63 63 57 55 55 54 53 52 49 47 46 44 42 42 42 42 42 41 40 39 37 36 35 34 32 31 30 29 27 26 25 24 24 23 22 21 21 21 21 21 22 23 24
62 63 64 62 62 61 64 63 58 57 57 56 54 53 51 49 47 46 44 43 43 43 42 42 40 39 38 37 36 34 33 32 31 30 28 27 27 26 25 24 23 23 22 22 22 22 23 24 25
60 61 62 62 60 61 63 63 60 59 59 57 56 55 53 51 49 47 45 44 43 43 43 42 41 40 39 37 36 35 34 32 32 31 30 29 28 27 26 25 24 24 24 24 24 24 25 26 27
58 59 61 60 58 59 62 63 62 61 61 60 58 57 55 53 50 49 47 45 44 44 44 43 42 41 39 37 35 34 34 33 33 32 31 30 28 28 27 27 26 25 25 25 25 26 26 28 28
58 59 59 58 56 57 60 64 64 63 62 61 60 58 57 54 52 51 49 48 46 45 44 43 43 42 40 38 37 36 35 34 34 33 32 31 30 29 29 28 27 27 26 26 27 27 28 29 30
56 57 58 58 57 57 59 64 65 64 63 62 61 60 58 56 54 52 51 50 48 46 45 44 43 42 41 40 39 38 37 36 34 33 33 32 31 31 30 29 29 29 28 28 29 29 30 31 32
54 54 54 55 55 56 58 62 64 64 63 63 63 61 59 58 56 54 53 51 49 47 45 45 44 43 42 41 40 39 37 36 35 35 34 34 33 32 31 31 30 30 30 30 31 31 31 32 33
51 51 52 53 54 55 57 61 63 61 63 62 62 61 59 58 57 56 54 52 50 49 47 46 45 44 44 43 41 41 39 38 38 37 36 35 34 33 32 32 32 31 31 32 32 33 33 34 35
48 49 49 50 52 56 57 58 63 61 60 60 60 60 59 58 57 56 55 53 52 51 49 48 47 46 45 44 43 42 41 40 39 38 37 36 35 34 34 33 33 33 33 34 34 34 35 35 36
46 47 47 48 51 56 55 58 61 58 58 58 59 59 59 59 58 57 57 55 53 52 51 49 48 47 46 46 44 43 42 42 41 40 39 37 36 36 36 35 35 35 35 36 36 36 36 36 37
45 47 47 48 49 52 52 57 57 54 54 55 56 57 58 59 58 58 56 56 54 53 52 51 49 48 48 47 46 44 44 43 42 41 40 39 38 38 38 37 37 37 37 37 37 37 37 37 38
43 46 47 45 44 47 50 52 53 51 51 52 54 55 57 57 57 58 57 56 56 54 52 52 51 50 48 47 46 46 45 44 43 43 42 41 40 39 39 39 39 39 39 38 38 37 38 38 39
42 43 46 46 43 43 46 48 52 51 50 51 53 54 55 56 56 57 57 56 56 54 53 53 52 51 49 48 47 46 46 46 45 44 43 42 41 41 41 41 40 40 40 39 39 38 39 39 39
40 44 47 47 44 40 41 45 47 46 47 49 52 53 53 54 55 56 56 57 56 55 54 54 53 52 51 49 48 47 47 47 46 45 45 44 42 42 41 41 41 41 41 40 39 39 39 39 39
37 40 45 47 46 42 38 39 40 41 42 44 47 50 52 54 53 53 54 55 56 56 55 54 53 52 51 51 49 47 46 46 47 46 45 44 43 43 42 41 42 41 41 40 40 39 39 39 39
Wind_Direction
250 249 247 245 244 242 239 236 235 233 231 229 227 226 227 228 230 232 231 229 228 227 227 227 227 227 228 228 229 231 234 236 236 238 241 242 243 245 250 253 260 268 274 277 279 282 287 292 299
248 247 246 244 244 243 239 237 236 234 232 231 230 229 229 230 231 232 231 229 228 227 228 228 228 227 229 230 231 233 236 237 237 238 239 241 242 245 248 253 261 269 273 274 277 282 287 293 299
247 246 245 244 244 244 240 237 236 235 233 231 230 229 228 230 231 233 232 230 228 227 227 228 228 228 230 231 232 234 236 237 237 238 238 239 241 244 248 255 261 267 268 272 277 281 286 293 299
246 245 244 244 244 242 239 237 236 234 234 233 230 230 229 230 233 234 233 232 229 227 228 227 227 228 229 231 233 235 236 236 236 237 238 239 241 245 251 256 259 262 266 271 275 279 286 292 298
245 244 244 243 242 239 237 236 236 235 234 234 232 230 231 232 232 233 233 232 230 228 227 227 227 228 229 230 232 236 236 235 236 237 238 239 242 246 251 253 255 260 264 269 274 278 283 290 298
243 243 244 243 241 238 236 235 237 235 234 233 233 232 231 231 232 232 232 232 230 228 227 227 228 228 228 230 233 235 235 235 236 237 238 240 243 247 250 251 255 258 263 268 272 276 282 290 297
243 243 243 242 239 236 234 234 236 235 234 234 233 233 232 231 231 231 232 231 230 228 228 228 228 228 229 231 234 235 234 235 236 237 238 240 244 247 249 250 254 257 260 265 270 276 283 290 298
242 242 241 239 238 235 234 234 233 233 233 233 233 232 233 231 230 230 231 232 230 229 228 228 228 229 230 231 234 234 234 235 236 236 237 240 244 246 248 249 252 255 258 264 270 276 284 292 298
240 240 239 238 237 235 234 234 233 232 232 232 233 232 233 231 230 230 231 232 231 230 229 229 228 229 230 232 233 234 234 235 236 237 238 241 243 245 246 247 250 254 259 264 270 277 285 292 297
239 240 239 238 237 234 233 233 233 232 230 230 232 232 233 232 232 231 231 232 231 230 229 229 228 229 230 232 233 233 233 234 236 238 239 240 242 244 245 246 249 254 260 265 270 276 285 292 297
239 240 238 236 235 233 232 231 232 231 229 229 231 232 232 231 232 231 230 231 231 230 228 228 228 229 230 231 232 232 233 234 236 239 239 240 241 243 243 245 249 254 260 265 271 277 286 292 296
239 238 236 234 233 232 231 230 230 230 229 228 229 230 230 229 230 231 230 230 230 229 227 227 227 227 229 230 231 231 233 235 236 237 237 239 240 241 241 245 248 254 260 266 271 278 286 291 295
238 237 235 234 232 231 230 229 228 229 228 228 228 230 229 229 229 229 229 229 228 228 227 227 226 227 228 230 230 232 234 235 236 236 236 238 240 240 241 244 248 253 260 266 272 279 285 290 295
236 236 235 233 231 230 231 229 228 226 227 227 228 230 228 229 229 229 229 228 228 227 227 227 228 228 228 229 230 232 234 234 235 235 235 237 238 239 242 244 249 254 260 266 272 279 284 289 294
234 235 234 232 231 230 231 229 227 225 227 227 228 229 228 228 228 229 229 229 228 228 228 228 228 228 229 230 231 232 233 233 234 234 235 236 237 239 242 245 249 255 261 266 273 280 284 289 294
233 233 233 231 231 230 231 230 226 226 227 227 227 228 228 227 228 229 229 228 228 228 228 228 228 229 229 231 232 232 232 232 233 233 234 236 237 239 242 246 250 256 261 266 274 281 285 289 294
231 232 232 231 231 231 232 229 225 226 227 226 227 227 228 227 228 228 229 229 229 228 228 228 229 229 229 231 231 231 231 232 232 233 234 236 238 240 243 247 251 256 261 267 275 280 285 289 294
231 231 231 231 230 232 232 230 226 227 227 227 226 226 227 227 228 228 228 229 229 229 229 229 229 228 228 230 231 231 231 231 231 232 233 236 239 241 244 248 252 257 262 269 275 280 285 289 294
231 231 231 230 230 232 232 231 228 227 227 226 226 226 226 226 227 228 228 228 229 229 229 229 229 229 229 230 231 231 230 230 230 231 233 237 240 242 245 248 252 257 264 270 276 280 284 289 293
228 229 229 228 228 231 232 231 229 228 227 226 226 226 226 225 226 228 228 228 229 229 229 229 229 229 229 230 231 230 229 229 230 231 235 239 241 244 246 249 253 258 265 271 276 280 284 288 292
226 227 227 228 227 230 232 232 229 228 227 226 226 226 226 226 226 227 229 229 229 229 229 229 229 229 229 229 229 230 230 230 231 234 237 239 242 244 247 250 255 260 266 271 276 280 285 288 291
226 224 226 227 227 229 230 233 229 228 228 226 225 225 225 226 226 227 228 229 229 229 229 229 229 228 228 228 229 230 231 232 233 235 237 240 243 245 248 252 257 262 266 271 276 280 284 287 291
225 223 224 225 226 228 229 233 230 229 229 227 226 226 226 227 227 227 228 229 229 229 229 229 229 229 229 229 230 230 231 233 234 236 239 241 244 247 250 253 258 263 267 272 276 279 283 286 290
223 223 225 226 228 229 226 231 231 228 228 227 227 227 226 227 227 228 228 229 229 230 229 229 230 230 230 231 231 232 233 234 235 237 240 242 245 248 251 255 259 264 268 272 275 278 283 286 289
221 221 223 225 228 230 227 232 232 228 227 227 227 227 227 227 228 228 228 229 229 230 230 230 231 231 231 232 232 233 234 235 237 238 240 243 246 249 253 257 261 265 268 271 275 278 282 285 288
222 221 221 225 229 230 230 232 230 229 228 228 227 227 227 227 228 229 230 230 230 230 231 231 232 233 233 234 234 235 236 237 238 239 242 245 248 251 254 258 262 265 268 271 275 278 281 284 287
222 222 220 225 228 231 232 232 229 228 228 227 226 226 227 227 228 229 229 230 230 230 230 232 233 234 234 235 235 236 237 238 239 241 243 245 248 252 255 259 263 266 268 271 275 278 280 283 287
224 223 220 221 224 229 232 231 229 228 229 229 228 228 227 228 227 228 229 229 230 230 230 231 233 234 235 235 236 237 238 239 240 241 243 246 249 253 256 260 263 266 268 271 274 277 280 283 286
223 222 220 222 225 227 230 231 230 231 232 231 229 229 229 229 229 229 229 229 230 230 230 230 232 233 234 235 236 237 239 239 241 242 245 247 250 253 257 260 263 265 268 271 274 277 280 283 285
223 223 221 221 223 224 226 226 226 229 230 232 231 231 230 230 229 229 230 230 230 231 231 231 232 233 234 236 237 238 239 241 242 243 246 248 252 255 257 260 262 264 267 271 274 277 279 282 284
Height
5795 5795 5796 5798 5799 5801 5805 5811 5814 5816 5819 5821 5823 5826 5829 5832 5834 5837 5840 5844 5847 5850 5852 5854 5857 5859 5861 5863 5866 5868 5869 5871 5872 5873 5875 5876 5876 5877 5878 5878 5879 5879 5879 5879 5879 5879 5879 5879 5878
5787 5788 5789 5790 5792 5795 5802 5807 5809 5811 5813 5815 5819 5822 5825 5826 5828 5831 5835 5839 5843 5846 5848 5851 5854 5856 5858 5861 5863 5865 5867 5869 5870 5871 5872 5874 5875 5875 5876 5877 5877 5878 5878 5878 5878 5878 5878 5877 5877
5779 5780 5781 5783 5786 5791 5798 5801 5803 5805 5807 5810 5814 5817 5820 5821 5823 5827 5831 5834 5838 5842 5844 5848 5850 5853 5855 5858 5860 5862 5864 5866 5867 5869 5870 5872 5873 5874 5874 5875 5876 5876 5876 5877 5877 5877 5876 5876 5875
5770 5771 5773 5776 5780 5787 5791 5794 5795 5798 5801 5804 5808 5811 5814 5817 5819 5823 5827 5830 5834 5837 5840 5843 5846 5849 5852 5854 5857 5859 5861 5863 5865 5866 5868 5869 5870 5872 5872 5873 5874 5874 5875 5875 5875 5875 5875 5874 5874
5759 5761 5764 5767 5774 5780 5784 5787 5788 5791 5794 5798 5802 5805 5808 5811 5815 5818 5821 5825 5829 5833 5836 5839 5842 5845 5848 5851 5854 5856 5858 5860 5862 5864 5865 5867 5868 5869 5870 5871 5872 5872 5873 5873 5873 5873 5873 5873 5872
5749 5751 5755 5760 5767 5773 5777 5780 5781 5784 5788 5791 5795 5799 5802 5805 5809 5813 5816 5819 5823 5828 5831 5834 5838 5841 5844 5847 5850 5852 5855 5857 5859 5861 5863 5864 5866 5867 5868 5869 5870 5870 5871 5871 5871 5871 5871 5871 5870
5739 5741 5745 5751 5758 5764 5769 5771 5774 5777 5781 5785 5788 5792 5795 5799 5804 5807 5810 5813 5818 5822 5826 5829 5833 5837 5840 5843 5846 5848 5851 5854 5856 5858 5860 5862 5863 5864 5865 5867 5867 5868 5869 5869 5869 5869 5869 5869 5868
5727 5729 5733 5741 5748 5756 5760 5762 5765 5769 5774 5778 5781 5784 5787 5793 5797 5801 5804 5808 5812 5817 5821 5824 5828 5832 5835 5839 5842 5844 5847 5850 5852 5854 5857 5858 5860 5862 5863 5864 5865 5866 5866 5867 5867 5867 5867 5866 5866
5712 5715 5722 5733 5740 5747 5751 5753 5757 5760 5765 5770 5773 5777 5781 5787 5791 5795 5798 5802 5807 5811 5815 5819 5823 5827 5830 5834 5837 5840 5843 5846 5849 5851 5853 5855 5857 5858 5860 5861 5862 5863 5864 5864 5864 5865 5864 5864 5863
5698 5703 5716 5727 5731 5736 5740 5743 5747 5752 5757 5762 5765 5770 5774 5780 5785 5789 5793 5797 5801 5805 5810 5813 5817 5821 5825 5829 5833 5836 5839 5842 5845 5847 5849 5852 5853 5855 5857 5858 5859 5860 5861 5861 5862 5862 5862 5861 5860
5686 5694 5707 5712 5718 5723 5728 5733 5737 5742 5748 5754 5758 5763 5768 5773 5778 5782 5786 5790 5795 5799 5803 5808 5812 5816 5820 5824 5828 5831 5835 5838 5840 5843 5845 5848 5850 5852 5853 5855 5856 5857 5858 5858 5859 5859 5858 5858 5857
5674 5683 5691 5699 5704 5710 5716 5721 5727 5733 5741 5746 5750 5754 5759 5765 5770 5775 5779 5784 5788 5792 5797 5801 5806 5811 5815 5819 5823 5826 5830 5833 5836 5839 5841 5844 5846 5848 5850 5851 5853 5854 5855 5855 5855 5855 5855 5855 5854
5659 5670 5677 5684 5691 5698 5704 5710 5716 5723 5731 5736 5740 5745 5752 5757 5763 5767 5772 5776 5781 5786 5791 5795 5800 5805 5809 5813 5817 5821 5825 5828 5831 5834 5837 5839 5842 5844 5846 5848 5849 5850 5851 5852 5852 5852 5852 5851 5850
5648 5656 5662 5670 5678 5685 5692 5698 5704 5715 5722 5727 5731 5737 5744 5750 5755 5760 5765 5769 5774 5779 5784 5789 5794 5799 5804 5808 5812 5816 5819 5823 5826 5829 5832 5835 5837 5840 5842 5844 5845 5846 5847 5848 5848 5848 5848 5847 5846
5634 5640 5647 5655 5665 5674 5679 5684 5695 5707 5711 5717 5723 5729 5736 5742 5747 5753 5758 5763 5768 5773 5778 5783 5788 5793 5798 5802 5806 5810 5814 5818 5821 5824 5828 5830 5833 5835 5838 5839 5841 5842 5843 5844 5844 5844 5843 5843 5842
5619 5624 5632 5645 5654 5662 5666 5674 5690 5696 5700 5707 5714 5720 5727 5734 5740 5746 5751 5756 5761 5766 5771 5777 5782 5787 5792 5796 5800 5804 5808 5812 5816 5819 5823 5825 5828 5831 5833 5835 5836 5838 5839 5839 5839 5839 5839 5838 5837
5603 5611 5621 5634 5642 5649 5653 5664 5679 5683 5689 5697 5704 5711 5718 5725 5731 5737 5743 5749 5754 5759 5765 5770 5775 5781 5785 5790 5794 5799 5803 5807 5811 5814 5817 5820 5823 5826 5828 5830 5832 5833 5834 5835 5835 5835 5834 5833 5832
5594 5603 5611 5621 5631 5636 5641 5653 5666 5671 5678 5686 5693 5701 5708 5716 5723 5729 5735 5741 5746 5752 5758 5763 5769 5774 5778 5783 5788 5793 5797 5801 5805 5809 5812 5815 5818 5821 5823 5825 5827 5828 5829 5830 5830 5830 5829 5828 5827
5583 5590 5597 5609 5619 5623 5630 5639 5650 5658 5665 5674 5682 5690 5699 5707 5715 5721 5727 5733 5738 5744 5750 5756 5762 5767 5772 5778 5783 5787 5791 5795 5799 5803 5806 5810 5813 5815 5817 5819 5821 5823 5824 5824 5824 5824 5824 5823 5822
5568 5575 5585 5596 5605 5611 5617 5625 5636 5644 5653 5663 5672 5681 5689 5697 5705 5711 5718 5724 5731 5737 5743 5749 5755 5760 5766 5772 5776 5780 5784 5789 5793 5797 5801 5804 5807 5809 5812 5814 5816 5817 5818 5818 5819 5818 5818 5817 5816
5554 5564 5575 5584 5593 5598 5605 5611 5621 5631 5641 5650 5660 5670 5679 5688 5696 5703 5709 5716 5723 5729 5735 5742 5748 5754 5759 5764 5769 5773 5778 5783 5787 5791 5795 5798 5801 5803 5806 5808 5810 5811 5812 5812 5812 5812 5812 5811 5810
5544 5556 5564 5572 5580 5586 5593 5597 5609 5620 5629 5639 5650 5660 5670 5678 5686 5694 5700 5708 5715 5722 5728 5734 5740 5746 5752 5757 5762 5767 5773 5778 5782 5785 5788 5791 5794 5797 5800 5802 5803 5805 5806 5806 5806 5806 5805 5804 5803
5536 5547 5554 5561 5567 5574 5580 5585 5597 5607 5617 5629 5641 5651 5661 5669 5677 5685 5692 5699 5707 5713 5720 5726 5732 5738 5744 5749 5755 5760 5766 5771 5774 5778 5781 5785 5788 5791 5793 5795 5797 5798 5799 5799 5799 5799 5798 5797 5796
5529 5537 5544 5549 5555 5559 5570 5575 5583 5597 5610 5623 5632 5642 5651 5660 5668 5675 5682 5690 5697 5704 5711 5718 5724 5730 5736 5742 5747 5753 5758 5763 5767 5771 5775 5778 5781 5784 5786 5788 5790 5791 5792 5792 5792 5791 5791 5790 5788
5519 5527 5534 5538 5542 5548 5562 5564 5574 5591 5603 5613 5622 5632 5641 5649 5657 5665 5672 5680 5688 5695 5703 5709 5716 5722 5728 5734 5740 5745 5751 5755 5760 5764 5767 5771 5774 5777 5779 5780 5782 5783 5784 5784 5784 5784 5783 5782 5781
5511 5518 5525 5531 5537 5545 5552 5555 5570 5584 5593 5602 5611 5621 5629 5638 5647 5655 5663 5671 5679 5687 5694 5701 5707 5714 5720 5726 5732 5738 5742 5747 5752 5756 5760 5763 5766 5769 5771 5772 5774 5775 5776 5776 5776 5776 5775 5774 5773
5503 5509 5518 5526 5531 5538 5542 5551 5563 5572 5581 5591 5600 5609 5618 5628 5637 5645 5653 5661 5669 5677 5685 5692 5698 5705 5711 5717 5723 5729 5734 5739 5743 5748 5751 5755 5758 5761 5762 5764 5765 5767 5767 5768 5768 5768 5767 5766 5764
5497 5504 5510 5516 5522 5529 5536 5545 5554 5564 5573 5583 5591 5600 5609 5618 5626 5635 5643 5651 5658 5667 5675 5682 5688 5696 5702 5708 5714 5720 5725 5730 5735 5739 5743 5746 5750 5752 5754 5756 5757 5758 5759 5759 5759 5759 5758 5757 5756
5489 5495 5501 5509 5515 5522 5530 5540 5550 5557 5565 5573 5582 5590 5599 5608 5616 5624 5633 5641 5648 5656 5664 5672 5679 5685 5692 5699 5705 5711 5716 5721 5725 5730 5734 5737 5741 5743 5745 5747 5748 5749 5750 5750 5750 5750 5749 5748 5747
5482 5488 5495 5502 5509 5516 5523 5535 5542 5548 5555 5563 5572 5581 5589 5597 5606 5614 5622 5630 5638 5645 5654 5662 5669 5676 5683 5690 5696 5701 5707 5712 5716 5721 5725 5728 5731 5734 5736 5738 5739 5740 5741 5741 5741 5741 5740 5739 5738